Location: Ford County Road and Bridge Department
(37.7686°N, 99.9762°W)
Time: 15:20:41
(UTC+00:00)

Cosmos 2341 Rocket - Pass Details

Date: 18 January 2020
Orbit: 967 x 1005 km, 82.9° (Epoch: 26 February)

Event Time Altitude Azimuth Distance (km) Brightness Sun altitude
Rises 00:36:19 0° 164° (SSE) 3,717 7.1 -9.9°
Reaches altitude 10° 00:38:58 10° 157° (SSE) 2,771 6.3 -10.4°
Maximum altitude 00:44:52 41° 89° (E) 1,419 4.4 -11.5°
Drops below altitude 10° 00:50:45 10° 22° (NNE) 2,777 6.0 -12.6°
Sets 00:53:25 0° 15° (NNE) 3,726 6.7 -13.1°
